📊 Raw Sensor Data

Showing records 44126 to 44150 of 85,030 total

ID Distance (ft) Battery V Battery A Int Temp (°F) Int Humid (%) Ext Temp (°F) Solar V RSSI SNR Time Stamp
40917 15.0 3.90 -5 48 43 50 0.00 -68 8 05/18/2025 02:15 AM
40916 15.0 3.90 -5 49 43 50 0.00 -67 9 05/18/2025 02:00 AM
40915 15.0 3.90 -5 49 43 50 0.00 -68 8 05/18/2025 01:45 AM
40914 15.0 3.90 -5 50 43 53 0.00 -68 8 05/18/2025 01:30 AM
40913 15.0 3.88 -5 50 44 52 0.00 -68 9 05/18/2025 01:15 AM
40912 15.0 3.90 -5 50 44 52 0.00 -68 8 05/18/2025 01:00 AM
40911 15.0 3.97 -5 51 44 51 0.00 -68 8 05/18/2025 12:45 AM
40910 15.0 3.91 -5 52 44 53 0.00 -69 8 05/18/2025 12:30 AM
40909 15.0 3.97 -5 53 44 55 0.00 -69 8 05/18/2025 12:15 AM
40908 15.0 3.90 -5 54 44 54 0.00 -68 8 05/18/2025 12:00 AM
40907 15.0 3.91 -5 55 44 56 0.00 -68 9 05/17/2025 11:45 PM
40906 15.0 3.97 -5 56 44 56 0.00 -68 7 05/17/2025 11:30 PM
40905 15.0 3.90 -35 57 44 57 0.00 -68 7 05/17/2025 11:15 PM
40904 15.0 3.91 -5 57 44 59 0.00 -69 8 05/17/2025 11:00 PM
40903 14.9 3.98 -5 58 44 59 0.00 -68 8 05/17/2025 10:45 PM
40902 14.9 3.98 -5 58 44 59 0.00 -71 8 05/17/2025 10:30 PM
40901 14.9 3.91 -5 58 44 59 0.00 -68 8 05/17/2025 10:15 PM
40900 14.9 3.91 -5 59 45 60 0.00 -69 8 05/17/2025 10:00 PM
40899 14.9 3.91 -5 59 45 60 0.10 -70 8 05/17/2025 09:45 PM
40898 14.9 3.91 -5 59 46 60 0.00 -68 8 05/17/2025 09:30 PM
40897 14.9 3.98 -5 60 47 61 0.00 -70 8 05/17/2025 09:15 PM
40896 14.9 3.91 -5 60 48 61 0.00 -68 8 05/17/2025 09:00 PM
40895 15.5 3.91 -5 61 49 61 0.00 -69 8 05/17/2025 08:45 PM
40894 15.5 3.91 -5 62 50 62 0.40 -68 8 05/17/2025 08:30 PM
40893 15.4 3.90 -10 64 51 63 2.80 -68 7 05/17/2025 08:15 PM